Find Hawk 9B

NORAD ID: 59450 Int'l Des: 2024-066 Owner: HE360 Country: US Constellation: hawkeye-360 operational
LEOCIRCULAR

現在のビュー

3D地球を読み込み中...

Hawk 9Bについて

説明を読み込み中...

次回通過

Passes for default location (London). Set your location on the main map for personalized predictions.

高度履歴

Loading altitude history...

軌道要素

1 59450U 24066J 26151.07436509 .00002158 00000-0 19383-3 0 9993
2 59450 45.6174 6.6011 0003923 283.5676 76.4769 14.99082675117267
Epoch: May 31, 2026 • Age: 6 hours

現在のステータス

高度 568.9 km
速度 7.58 km/s
衛星直下点 5.17°N, 1.79°W
打ち上げ日 Apr 7, 2024
運用期間 2.1 years
タイプ other

技術仕様

分類 Payload
質量 31.00 kg
乾燥質量 30.00 kg
総質量 31.00 kg
長さ 0.45 m
直径 0.30 m
スパン 1.00 m
形状 Box + 2 pan
製造者 UTIAS
バスタイプ Hawk2G
フェーズステータス In Orbit
所有者/国 HE360/US

Most Searched